Weather History for Lincoln, NE

Change the Weather History Date:

Tuesday, July 15, 2014

  Actual Average Record
Temperature  
Mean Temperature 64 °F 78 °F  
Max Temperature 76 °F 89 °F 112 °F (1934)
Min Temperature 52 °F 66 °F 51 °F (1990)
Degree Days  
Heating Degree Days 1 0  
Month to date heating degree days 1 0  
Since 1 June heating degree days 3 16  
Since 1 July heating degree days 1 0  
Cooling Degree Days 0 13  
Month to date cooling degree days 150 188  
Year to date cooling degree days 588 509  
Since 1 June cooling degree days 428 430  
Growing Degree Days 14 (Base 50)    
Moisture  
Dew Point 49 °F    
Average Humidity 62    
Maximum Humidity 86    
Minimum Humidity 38    
Precipitation  
Precipitation 0.00 in 0.11 in 2.04 in (1900)
Month to date precipitation 0.45 1.74  
Year to date precipitation 16.10 16.43  
Snow  
Snow 0.00 in 0.00 in - ()
Month to date snowfall 0.0 0.0  
Since 1 July snowfall 0.0 0.0  
Snow Depth 0.00 in    
Sea Level Pressure  
Sea Level Pressure 30.15 in    
Wind  
Wind Speed 9 mph (NNW)    
Max Wind Speed 21 mph    
Max Gust Speed 26 mph    
Visibility 10 miles    
Events      
T = Trace of Precipitation, MM = Missing Value Source: NWS Daily Summary

Daily Weather History Graph

Daily Weather History Graph

Search for Another Location

Airport:

Trip Planner

Search our weather history database for the weather conditions in past years. The results will help you decide how hot, cold, wet, or windy it might be!

Date:

Astronomy

Jul. 15, 2014 Rise Set
Actual Time 6:08 AM CDT 8:57 PM CDT
Civil Twilight 5:35 AM CDT 9:29 PM CDT
Nautical Twilight 4:55 AM CDT 10:10 PM CDT
Astronomical Twilight 4:08 AM CDT 10:57 PM CDT
Moon 11:03 PM CDT (7/15) 10:05 AM CDT (7/15)
Length of Visible Light 15h 53m
Length of Day
14h 48m
Waning Gibbous, 85% of the Moon is Illuminated
Jul 15
Waning Gibbous
Jul 18
Last Quarter
Jul 26
New
Aug 3
First Quarter
Aug 10
Full

Hourly Weather History & Observations

Time (CDT) Temp. Dew Point Humidity Pressure Visibility Wind Dir Wind Speed Gust Speed Precip Events Conditions
12:54 AM 61.0 °F 48.0 °F 62% 30.18 in 10.0 mi NW 4.6 mph - N/A   Clear
1:54 AM 57.9 °F 48.9 °F 72% 30.18 in 10.0 mi NNW 5.8 mph - N/A   Clear
2:54 AM 57.0 °F 48.0 °F 72% 30.19 in 10.0 mi NW 4.6 mph - N/A   Clear
3:54 AM 52.0 °F 46.9 °F 83% 30.19 in 10.0 mi NW 5.8 mph - N/A   Clear
4:54 AM 55.0 °F 48.0 °F 77% 30.18 in 10.0 mi NW 6.9 mph - N/A   Clear
5:54 AM 54.0 °F 48.0 °F 80% 30.18 in 10.0 mi NW 5.8 mph - N/A   Clear
6:54 AM 55.0 °F 48.0 °F 77% 30.18 in 10.0 mi NW 6.9 mph - N/A   Clear
7:54 AM 59.0 °F 48.9 °F 69% 30.19 in 10.0 mi WNW 8.1 mph - N/A   Clear
8:54 AM 63.0 °F 50.0 °F 63% 30.20 in 10.0 mi NW 12.7 mph - N/A   Clear
9:54 AM 66.9 °F 51.1 °F 57% 30.21 in 10.0 mi NNW 13.8 mph - N/A   Clear
10:54 AM 70.0 °F 48.9 °F 47% 30.19 in 10.0 mi North 12.7 mph - N/A   Partly Cloudy
11:54 AM 71.1 °F 46.9 °F 42% 30.17 in 10.0 mi North 13.8 mph 21.9 mph N/A   Partly Cloudy
12:54 PM 71.1 °F 48.0 °F 44% 30.17 in 10.0 mi North 17.3 mph 23.0 mph N/A   Mostly Cloudy
1:54 PM 73.9 °F 48.0 °F 40% 30.15 in 10.0 mi North 13.8 mph 21.9 mph N/A   Scattered Clouds
2:54 PM 75.0 °F 48.9 °F 40% 30.13 in 10.0 mi NNE 15.0 mph - N/A   Mostly Cloudy
3:54 PM 75.9 °F 48.9 °F 38% 30.11 in 10.0 mi North 11.5 mph 23.0 mph N/A   Scattered Clouds
4:54 PM 75.0 °F 48.9 °F 40% 30.10 in 10.0 mi NNE 11.5 mph - N/A   Scattered Clouds
5:54 PM 75.0 °F 48.9 °F 40% 30.09 in 10.0 mi North 13.8 mph - N/A   Mostly Cloudy
6:54 PM 71.1 °F 48.9 °F 45% 30.07 in 10.0 mi NNE 9.2 mph - N/A   Mostly Cloudy
7:54 PM 66.9 °F 50.0 °F 54% 30.07 in 10.0 mi North 6.9 mph - N/A   Clear
8:54 PM 66.0 °F 50.0 °F 56% 30.08 in 10.0 mi NNE 5.8 mph - N/A   Clear
9:54 PM 68.0 °F 48.9 °F 50% 30.09 in 10.0 mi NW 3.5 mph - N/A   Scattered Clouds
10:54 PM 64.9 °F 51.1 °F 61% 30.10 in 10.0 mi North - - N/A   Mostly Cloudy
11:54 PM 57.9 °F 53.1 °F 84% 30.09 in 10.0 mi NNW 3.5 mph - N/A   Clear